SLEIPNER A PLATF current weather conditions

sailwx.info

Wind from 300 at 22 knots

Air temperature 8.0° C
Visibility: greater than 5.4 NM
Dewpoint 5.0° C

Last reported at 2015-May-28 08:20 UTC.
Time now 2015-May-28 10:07 UTC

Location: N 58°22' E 001°54'.
View on Google Maps.

See reports from other nearby stations

  
Tides and Currents Weather Stations Pressure Air Temp Water Temp Dewpoint Dewpoint Depression Visibility Wind Speed Wind Dir Waves Ship Positions
date/time (UTC)wind fromknots sea level pressurealtimeterstation pressurevisibilityair tempwater tempwave heightnotes
2015-May-28 09:20 290 22 5.4 8.0
2015-May-28 08:50 290 22 5.4 8.0
2015-May-28 08:20 300 22 5.4 8.0
2015-May-28 07:50 290 26 5.4 8.0
2015-May-28 07:20 290 20 5.4 8.0
2015-May-28 06:50 290 20 5.4 8.0
2015-May-28 06:20 290 20 5.4 7.0
2015-May-28 05:50 290 20 5.4 7.0
2015-May-28 05:20 280 20 5.4 7.0 Light rain showers.
2015-May-28 04:50 280 20 5.4 8.0 Light rain showers.
2015-May-28 04:20 250 16 5.4 8.0
2015-May-28 03:50 230 18 5.4 7.0
2015-May-28 03:20 230 14 5.4 8.0
2015-May-28 02:50 240 15 5.4 7.0
2015-May-28 02:20 240 14 5.4 7.0
2015-May-28 01:50 240 12 5.4 7.0 Light rain.
2015-May-28 01:20 240 14 5.4 7.0 Light rain.
2015-May-28 00:50 170 20 gusting 31 2.1 8.0 Rain.
2015-May-28 00:20 150 23 4.3 7.0 Light rain.
2015-May-27 23:50 170 19 4.3 7.0 Light rain.
2015-May-27 23:20 3.8 7.0 Light rain.
2015-May-27 22:50 180 22 5.4 7.0 Light rain.
2015-May-27 22:20 180 23 5.4 7.0 Light rain.
2015-May-27 21:50 180 25 2.7 7.0 Rain.
2015-May-27 21:20 180 23 4.3 8.0 Light rain showers.
2015-May-27 20:50 180 24 5.4 8.0 Light rain.
2015-May-27 20:20 180 18 5.4 8.0 Light rain.
2015-May-27 15:50 200 19 5.4 9.0
2015-May-27 15:20 200 18 5.4 9.0
2015-May-27 14:50 200 16 5.4 9.0
2015-May-27 14:20 210 17 5.4 9.0
2015-May-27 13:50 210 16 5.4 9.0
2015-May-27 13:20 210 18 5.4 9.0
2015-May-27 12:50 210 19 5.4 9.0
2015-May-27 12:20 210 19 5.4 9.0
2015-May-27 11:50 230 18 5.4 9.0
2015-May-27 11:20 230 18 5.4 9.0
2015-May-27 10:50 230 17 5.4 9.0
2015-May-27 10:20 240 15 5.4 9.0
2015-May-27 09:50 260 15 5.4 9.0
2015-May-27 09:20 260 18 5.4 9.0
2015-May-27 08:50 260 18 5.4 9.0
2015-May-27 08:20 260 20 5.4 9.0
2015-May-27 07:50 270 20 5.4 9.0
2015-May-27 07:20 270 22 5.4 9.0
2015-May-27 06:50 270 20 5.4 9.0
2015-May-27 04:50 280 22 5.4 9.0
2015-May-27 04:20 290 23 5.4 8.0
2015-May-27 03:50 290 25 5.4 8.0
2015-May-27 03:20 290 24 5.4 8.0
2015-May-27 02:50 290 23 5.4 8.0
2015-May-27 02:20 300 24 5.4 8.0
2015-May-27 01:50 290 25 5.4 9.0
2015-May-27 01:20 290 27 5.4 8.0
2015-May-27 00:50 290 27 5.4 8.0
2015-May-27 00:20 290 26 5.4 9.0
2015-May-26 23:50 290 26 5.4 8.0
2015-May-26 23:20 300 27 5.4 9.0
2015-May-26 22:50 290 27 5.4 9.0
2015-May-26 22:20 290 26 5.4 9.0
2015-May-26 21:50 300 26 5.4 9.0
2015-May-26 21:20 290 25 5.4 9.0
2015-May-26 20:50 290 26 5.4 9.0
2015-May-26 20:20 290 25 5.4 9.0
2015-May-26 19:50 300 27 5.4 9.0
2015-May-26 19:20 300 26 5.4 9.0
2015-May-26 18:50 300 27 5.4 9.0
2015-May-26 18:20 300 27 5.4 9.0 Light rain showers.
2015-May-26 17:50 300 27 5.4 9.0
2015-May-26 17:20 300 27 5.4 9.0 Light rain.
2015-May-26 16:50 300 27 5.410.0
2015-May-26 16:20 310 29 5.410.0
2015-May-26 15:50 300 27 5.410.0
2015-May-26 15:20 300 30 5.410.0
2015-May-26 14:50 300 27 5.410.0
2015-May-26 14:20 300 26 5.410.0
2015-May-26 13:50 300 27 5.410.0
2015-May-26 13:20 300 27 5.4 9.0
2015-May-26 12:50 300 26 5.410.0
2015-May-26 12:20 300 27 5.4 9.0 Light drizzle.
2015-May-26 11:50 280 19 5.4 8.0 Light drizzle.
2015-May-26 11:20 260 15 5.4 8.0 Showers in the vicinity.
2015-May-26 10:50 280 18 5.4 8.0
2015-May-26 10:20 280 18 5.4 8.0